Location: Canet
(43.3261°N, 5.3723°E)
Time: 17:11:08
(UTC+00:00)

Envisat - Pass Details

Date: 26 September 2021
Orbit: 764 x 766 km, 98.2° (Epoch: 19 October)

Event Time Altitude Azimuth Distance (km) Brightness Sun altitude
Rises 03:21:32 0° 34° (NE) 3,239 7.1 -23.7°
Reaches altitude 10° 03:25:24 10° 64° (ENE) 2,306 6.6 -23.1°
Maximum altitude 03:27:27 12° 88° (E) 2,140 6.2 -22.7°
Drops below altitude 10° 03:29:30 10° 112° (ESE) 2,298 6.1 -22.4°
Sets 03:33:18 0° 142° (SE) 3,217 6.5 -21.7°
